Stündliche Wetter Labutevcy

Heute, 14 Mai, Freitag

Zeit Temperatur Niederschläge Wind Luftdruck Luftfeuchtigkeit
00:00 +7°C° 0.6 mm 4 m/S 742 mmHg 94%
01:00 +8°C° 0.6 mm 4 m/S 742 mmHg 94%
02:00 +8°C° 0.6 mm 4 m/S 742 mmHg 94%
03:00 +8°C° 0.2 mm 4 m/S 742 mmHg 95%
04:00 +8°C° 0.2 mm 4 m/S 741 mmHg 96%
05:00 +8°C° 0.2 mm 4 m/S 741 mmHg 96%
06:00 +8°C° 1.2 mm 5 m/S 741 mmHg 96%
07:00 +9°C° 1.2 mm 5 m/S 741 mmHg 95%
08:00 +9°C° 1.2 mm 5 m/S 741 mmHg 95%
09:00 +10°C° 0.1 mm 6 m/S 741 mmHg 93%
10:00 +11°C° 0.1 mm 6 m/S 741 mmHg 90%
11:00 +11°C° 0.1 mm 6 m/S 741 mmHg 88%
12:00 +11°C° 0.5 mm 6 m/S 741 mmHg 90%
13:00 +12°C° 0.5 mm 5 m/S 741 mmHg 92%
14:00 +12°C° 0.5 mm 5 m/S 741 mmHg 94%
15:00 +12°C° 0.1 mm 5 m/S 741 mmHg 92%
16:00 +13°C° 0.1 mm 4 m/S 741 mmHg 90%
17:00 +14°C° 0.1 mm 4 m/S 741 mmHg 88%
18:00 +13°C° 0 mm 3 m/S 741 mmHg 90%
19:00 +13°C° 0 mm 3 m/S 741 mmHg 92%
20:00 +13°C° 0 mm 2 m/S 741 mmHg 93%
21:00 +13°C° 0 mm 2 m/S 741 mmHg 94%
22:00 +12°C° 0 mm 2 m/S 741 mmHg 94%
23:00 +12°C° 0 mm 2 m/S 741 mmHg 94%

Morgen, 15 Mai, Samstag

Zeit Temperatur Niederschläge Wind Luftdruck Luftfeuchtigkeit
00:00 +10°C° 0 mm 2 m/S 741 mmHg 94%
01:00 +10°C° 0 mm 2 m/S 741 mmHg 94%
02:00 +10°C° 0 mm 2 m/S 741 mmHg 94%
03:00 +11°C° 0 mm 1 m/S 741 mmHg 94%
04:00 +11°C° 0 mm 1 m/S 741 mmHg 94%
05:00 +11°C° 0 mm 1 m/S 741 mmHg 94%
06:00 +11°C° 0 mm 0 m/S 741 mmHg 90%
07:00 +13°C° 0 mm 0 m/S 741 mmHg 85%
08:00 +15°C° 0 mm 0 m/S 741 mmHg 81%
09:00 +16°C° 0.4 mm 0 m/S 741 mmHg 77%
10:00 +17°C° 0.4 mm 0 m/S 741 mmHg 73%
11:00 +20°C° 0.4 mm 1 m/S 741 mmHg 69%
12:00 +20°C° 1.5 mm 1 m/S 741 mmHg 71%
13:00 +19°C° 1.5 mm 2 m/S 741 mmHg 73%
14:00 +19°C° 1.5 mm 2 m/S 741 mmHg 74%
15:00 +18°C° 0.8 mm 2 m/S 741 mmHg 78%
16:00 +18°C° 0.8 mm 2 m/S 741 mmHg 82%
17:00 +17°C° 0.8 mm 2 m/S 741 mmHg 85%
18:00 +16°C° 0.1 mm 2 m/S 742 mmHg 87%
19:00 +15°C° 0.1 mm 2 m/S 742 mmHg 88%
20:00 +14°C° 0.1 mm 2 m/S 742 mmHg 89%
21:00 +14°C° 0 mm 2 m/S 742 mmHg 90%
22:00 +13°C° 0 mm 2 m/S 742 mmHg 91%
23:00 +12°C° 0 mm 2 m/S 742 mmHg 92%

übermorgen, 16 Mai, Sonntag

Zeit Temperatur Niederschläge Wind Luftdruck Luftfeuchtigkeit
00:00 +10°C° 0 mm 2 m/S 743 mmHg 93%
01:00 +10°C° 0 mm 2 m/S 743 mmHg 93%
02:00 +9°C° 0 mm 2 m/S 743 mmHg 94%
03:00 +9°C° 0 mm 2 m/S 743 mmHg 93%
04:00 +9°C° 0 mm 2 m/S 744 mmHg 92%
05:00 +10°C° 0 mm 1 m/S 744 mmHg 92%
06:00 +12°C° 0 mm 1 m/S 744 mmHg 86%
07:00 +14°C° 0 mm 1 m/S 744 mmHg 80%
08:00 +15°C° 0 mm 1 m/S 745 mmHg 74%
09:00 +18°C° 0 mm 1 m/S 745 mmHg 69%
10:00 +19°C° 0 mm 1 m/S 745 mmHg 63%
11:00 +21°C° 0 mm 1 m/S 745 mmHg 58%
12:00 +20°C° 0 mm 2 m/S 745 mmHg 56%
13:00 +21°C° 0 mm 2 m/S 745 mmHg 54%
14:00 +21°C° 0 mm 2 m/S 744 mmHg 51%
15:00 +21°C° 0.1 mm 2 m/S 744 mmHg 56%
16:00 +20°C° 0.1 mm 3 m/S 744 mmHg 61%
17:00 +20°C° 0.1 mm 3 m/S 744 mmHg 66%
18:00 +18°C° 0.2 mm 3 m/S 744 mmHg 73%
19:00 +17°C° 0.2 mm 3 m/S 744 mmHg 81%
20:00 +15°C° 0.2 mm 2 m/S 744 mmHg 89%
21:00 +15°C° 0 mm 2 m/S 744 mmHg 89%
22:00 +14°C° 0 mm 2 m/S 744 mmHg 90%
23:00 +12°C° 0 mm 3 m/S 744 mmHg 91%

17 Mai, Montag

Zeit Temperatur Niederschläge Wind Luftdruck Luftfeuchtigkeit
00:00 +13°C° 0.1 mm 2 m/S 744 mmHg 91%
01:00 +13°C° 0.1 mm 2 m/S 744 mmHg 91%
02:00 +13°C° 0.1 mm 2 m/S 743 mmHg 92%
03:00 +12°C° 0.1 mm 3 m/S 743 mmHg 92%
04:00 +12°C° 0.1 mm 3 m/S 743 mmHg 93%
05:00 +12°C° 0.1 mm 3 m/S 743 mmHg 94%
06:00 +13°C° 0.1 mm 4 m/S 743 mmHg 91%
07:00 +14°C° 0.1 mm 4 m/S 743 mmHg 89%
08:00 +15°C° 0.1 mm 5 m/S 743 mmHg 87%
09:00 +15°C° 0.4 mm 5 m/S 743 mmHg 88%
10:00 +15°C° 0.4 mm 5 m/S 743 mmHg 89%
11:00 +15°C° 0.4 mm 5 m/S 743 mmHg 91%
12:00 +14°C° 0.5 mm 4 m/S 743 mmHg 91%
13:00 +14°C° 0.5 mm 3 m/S 743 mmHg 92%
14:00 +15°C° 0.5 mm 2 m/S 743 mmHg 92%
15:00 +15°C° 0.4 mm 2 m/S 743 mmHg 90%
16:00 +15°C° 0.4 mm 1 m/S 743 mmHg 88%
17:00 +15°C° 0.4 mm 1 m/S 743 mmHg 86%
18:00 +15°C° 0 mm 1 m/S 743 mmHg 88%
19:00 +14°C° 0 mm 1 m/S 743 mmHg 91%
20:00 +13°C° 0 mm 1 m/S 743 mmHg 94%
21:00 +12°C° 0 mm 1 m/S 743 mmHg 95%
22:00 +12°C° 0 mm 2 m/S 743 mmHg 95%
23:00 +10°C° 0 mm 2 m/S 743 mmHg 96%

18 Mai, Dienstag

Zeit Temperatur Niederschläge Wind Luftdruck Luftfeuchtigkeit
00:00 +10°C° 0 mm 2 m/S 742 mmHg 96%
01:00 +9°C° 0 mm 2 m/S 742 mmHg 96%
02:00 +9°C° 0 mm 2 m/S 742 mmHg 96%
03:00 +9°C° 0 mm 2 m/S 742 mmHg 96%
04:00 +8°C° 0 mm 2 m/S 741 mmHg 96%
05:00 +8°C° 0 mm 2 m/S 741 mmHg 96%
06:00 +10°C° 0 mm 2 m/S 741 mmHg 90%
07:00 +13°C° 0 mm 2 m/S 741 mmHg 84%
08:00 +14°C° 0 mm 2 m/S 741 mmHg 78%
09:00 +16°C° 0 mm 2 m/S 741 mmHg 70%
10:00 +17°C° 0 mm 2 m/S 741 mmHg 63%
11:00 +18°C° 0 mm 2 m/S 741 mmHg 55%
12:00 +19°C° 0 mm 2 m/S 740 mmHg 53%
13:00 +21°C° 0 mm 1 m/S 740 mmHg 50%
14:00 +21°C° 0 mm 1 m/S 740 mmHg 48%
15:00 +21°C° 0.1 mm 1 m/S 740 mmHg 52%
16:00 +19°C° 0.1 mm 2 m/S 740 mmHg 57%
17:00 +19°C° 0.1 mm 2 m/S 740 mmHg 62%
18:00 +17°C° 0.4 mm 3 m/S 740 mmHg 72%
19:00 +14°C° 0.4 mm 4 m/S 740 mmHg 82%
20:00 +12°C° 0.4 mm 5 m/S 741 mmHg 92%
21:00 +12°C° 0.2 mm 5 m/S 741 mmHg 93%
22:00 +11°C° 0.2 mm 4 m/S 741 mmHg 94%
23:00 +11°C° 0.2 mm 4 m/S 741 mmHg 95%

19 Mai, Mittwoch

Zeit Temperatur Niederschläge Wind Luftdruck Luftfeuchtigkeit
00:00 +10°C° 0.3 mm 3 m/S 741 mmHg 95%
01:00 +10°C° 0.3 mm 3 m/S 741 mmHg 96%
02:00 +10°C° 0.3 mm 3 m/S 741 mmHg 96%
03:00 +10°C° 0.1 mm 3 m/S 742 mmHg 96%
04:00 +9°C° 0.1 mm 3 m/S 742 mmHg 96%
05:00 +8°C° 0.1 mm 3 m/S 742 mmHg 96%
06:00 +9°C° 0 mm 3 m/S 743 mmHg 94%
07:00 +10°C° 0 mm 4 m/S 743 mmHg 91%
08:00 +11°C° 0 mm 4 m/S 744 mmHg 89%
09:00 +12°C° 0 mm 4 m/S 744 mmHg 81%
10:00 +13°C° 0 mm 4 m/S 744 mmHg 73%
11:00 +15°C° 0 mm 4 m/S 745 mmHg 65%
12:00 +15°C° 0.1 mm 4 m/S 745 mmHg 64%
13:00 +16°C° 0.1 mm 3 m/S 745 mmHg 63%
14:00 +16°C° 0.1 mm 3 m/S 745 mmHg 61%
15:00 +16°C° 0.1 mm 3 m/S 746 mmHg 63%
16:00 +16°C° 0.1 mm 3 m/S 746 mmHg 65%
17:00 +16°C° 0.1 mm 3 m/S 746 mmHg 67%
18:00 +14°C° 0.2 mm 3 m/S 746 mmHg 74%
19:00 +14°C° 0.2 mm 2 m/S 747 mmHg 80%
20:00 +12°C° 0.2 mm 2 m/S 747 mmHg 87%
21:00 +12°C° 0 mm 2 m/S 747 mmHg 89%
22:00 +10°C° 0 mm 2 m/S 748 mmHg 92%
23:00 +9°C° 0 mm 2 m/S 748 mmHg 94%
Mehr zeigen

Wir brauchen deine Erlaubnis

Meteoprog und unser Service Anbieter werden persönliche Daten aufbewahren, so wie Cookies, Geräte Bezeichnung oder ähnliche Technologien von deinem Gerät und Prozess, so wie Persönliche Daten Inhalte und Werbungen, genauso wie social Media und den Verkehr zu analysieren.

  • Aufbewahrung und/oder Zugang zu deiner Geräte Informationen.

    Cookies, Geräte Bezeichnung oder andere Informationen, können aufbewahrt oder Zugang zu deinem Gerät erhalten, für den Grund, der oben angegeben wird.

  • Personalisierte Werbung und Inhalte, Messungen, Einblick in das Publikum und Produkt Entwicklung.

    Werbungen und Inhalte können personalisiert werden, basierend auf ein Profil. Mehr Daten können besser personalisierte Werbungen und Inhalte hinzufügen. Werbung und Inhalte können gezeigt und gemessen werden. Einblicke über das Publikum, welche die Werbung gesehen haben und den Inhalt, können abgeleitet werden. So wie Daten können genutzt werden, um es zu verbessern oder die Benutzer Erfahrung zu verbessern das System und die Software.

Wenn du “Ich stimme zu” klickst, erlaubst du uns, die Cookies zu benutzen die Geräte Bezeichnung, den Web oder ähnliche Technologien zu benutzen. Deine Settings, können in deinem Gerät bei deinem Browser geändert werden.

Für den bestimmten Zweck, berechtigten Interessen beruhen darauf, mehr als auf den Inhalt. Du kannst mehr darüber in unseren Privaten und Cookie Politik lesen.